Location: Treviso
(45.6669°N, 12.2430°E)
Time: 10:02:34
(UTC+01:00)

ISS - Pass Details

Date: 28 March 2023
Orbit: 414 x 423 km, 51.6° (Epoch: 20 March)

Event Time Altitude Azimuth Distance (km) Brightness Sun altitude
Rises 21:18:55 0° 298° (WNW) 2,360 1.8 -18.5°
Reaches altitude 10° 21:21:01 10° 301° (WNW) 1,493 0.3 -18.8°
Maximum altitude 21:24:22 71° 26° (NNE) 441 -3.8 -19.4°
Enters shadow 21:24:31 70° 50° (NE) 445 -3.8 -19.4°
